Wright-Patt AFB, OH

2:21 PM EDT on April 28, 2017 (GMT -0400)
Wright-Patterson Air Force Base

Weather History for KFFO - December, 2014

Change the Weather History Date:

Sunday, December 14, 2014

  Actual Average Record
Temperature  
Mean Temperature 40 °F -  
Max Temperature 46 °F 39 °F 64 °F (2015)
Min Temperature 33 °F 25 °F 4 °F (2016)
Degree Days  
Heating Degree Days 26    
Moisture  
Dew Point 37 °F    
Average Humidity 84    
Maximum Humidity 97    
Minimum Humidity 77    
Precipitation  
Precipitation 0.00 in - - ()
Sea Level Pressure  
Sea Level Pressure 30.15 in    
Wind  
Wind Speed 7 mph (SW)    
Max Wind Speed 9 mph    
Max Gust Speed -    
Visibility 10 miles    
Events      
Averages and records for this station are not official NWS values.
T = Trace of Precipitation, MM = Missing Value Source: NWS Daily Summary

Daily Weather History Graph

Daily Weather History Graph

Search for Another Location

Airport or City:

Trip Planner

Search our weather history database for the weather conditions in past years. The results will help you decide how hot, cold, wet, or windy it might be!

Date:

Astronomy

Dec. 14, 2014 Rise Set
Actual Time 7:49 AM EST 5:12 PM EST
Civil Twilight 7:19 AM EST 5:42 PM EST
Nautical Twilight 6:45 AM EST 6:16 PM EST
Astronomical Twilight 6:12 AM EST 6:49 PM EST
Moon 12:12 AM EST (12/14) 12:41 PM EST (12/14)
Length of Visible Light 10h 23m
Length of Day
9h 22m
Waning Gibbous, 48% of the Moon is Illuminated
Dec 14
Waning Gibbous
Dec 21
New
Dec 28
First Quarter
Jan 4
Full
Jan 13
Last Quarter

Hourly Weather History & Observations

Time (EST) Temp. Windchill Dew Point Humidity Pressure Visibility Wind Dir Wind Speed Gust Speed Precip Events Conditions
12:58 AM 42.6 °F 37.8 °F 36.5 °F 79% 30.16 in 10.0 mi SW 8.1 mph - N/A   Overcast
1:58 AM 42.6 °F 37.8 °F 36.7 °F 79% 30.15 in 10.0 mi SW 8.1 mph - N/A   Overcast
2:58 AM 42.6 °F 38.4 °F 36.5 °F 79% 30.16 in 10.0 mi SW 6.9 mph - N/A   Overcast
3:58 AM 42.4 °F 37.5 °F 36.7 °F 80% 30.16 in 10.0 mi SSW 8.1 mph - N/A   Overcast
4:58 AM 42.8 °F 37.5 °F 36.9 °F 80% 30.16 in 10.0 mi SW 9.2 mph - N/A   Overcast
5:58 AM 42.6 °F 37.8 °F 36.9 °F 80% 30.17 in 10.0 mi SW 8.1 mph - N/A   Overcast
6:58 AM 42.8 °F 38.0 °F 37.0 °F 80% 30.18 in 10.0 mi SW 8.1 mph - N/A   Overcast
7:28 AM 42.8 °F 38.0 °F 37.4 °F 81% 30.15 in 10.0 mi SW 8.1 mph - N/A   Overcast
7:58 AM 42.8 °F 37.5 °F 37.0 °F 80% 30.17 in 10.0 mi SW 9.2 mph - N/A   Overcast
8:58 AM 43.0 °F 38.8 °F 37.4 °F 81% 30.18 in 10.0 mi SW 6.9 mph - N/A   Overcast
9:58 AM 43.9 °F 40.5 °F 37.9 °F 80% 30.19 in 10.0 mi SW 5.8 mph - N/A   Overcast
10:58 AM 44.6 °F 41.4 °F 38.5 °F 79% 30.19 in 10.0 mi SW 5.8 mph - N/A   Overcast
11:28 AM 44.6 °F 41.4 °F 39.2 °F 81% 30.17 in 10.0 mi SSW 5.8 mph - N/A   Overcast
11:58 AM 45.3 °F 42.3 °F 39.0 °F 79% 30.18 in 10.0 mi SW 5.8 mph - N/A   Overcast
12:58 PM 46.0 °F 41.9 °F 39.6 °F 78% 30.16 in 10.0 mi SW 8.1 mph - N/A   Overcast
1:58 PM 46.6 °F - 39.7 °F 77% 30.15 in 10.0 mi SW 8.1 mph - N/A   Overcast
2:58 PM 46.9 °F - 40.1 °F 77% 30.15 in 10.0 mi SW 6.9 mph - N/A   Overcast
3:48 PM 46.4 °F 42.4 °F 41.0 °F 81% 30.13 in 10.0 mi WSW 8.1 mph - N/A   Overcast
3:58 PM 46.6 °F - 40.5 °F 79% 30.15 in 10.0 mi WSW 8.1 mph - N/A   Overcast
4:58 PM 45.9 °F 42.9 °F 40.8 °F 83% 30.15 in 10.0 mi SSW 5.8 mph - N/A   Overcast
5:58 PM 45.3 °F 41.6 °F 40.3 °F 83% 30.14 in 10.0 mi South 6.9 mph - N/A   Overcast
6:58 PM 45.1 °F 40.3 °F 39.7 °F 81% 30.13 in 10.0 mi South 9.2 mph - N/A   Overcast
7:18 PM 42.8 °F 37.5 °F 39.2 °F 87% 30.11 in 10.0 mi SSW 9.2 mph - N/A   Scattered Clouds
7:58 PM 40.8 °F 36.9 °F 37.4 °F 88% 30.14 in 10.0 mi SSW 5.8 mph - N/A   Clear
8:58 PM 37.0 °F 33.3 °F 35.1 °F 93% 30.14 in 10.0 mi South 4.6 mph - N/A   Clear
9:58 PM 36.0 °F - 34.0 °F 93% 30.14 in 10.0 mi Calm Calm - N/A   Clear
10:08 PM 35.6 °F - 32.0 °F 87% 30.11 in 7.0 mi SE 2.3 mph - N/A   Clear
10:38 PM 33.8 °F - 32.0 °F 93% 30.13 in 8.0 mi Calm Calm - N/A   Mostly Cloudy
10:58 PM 37.0 °F - 36.1 °F 97% 30.16 in 8.0 mi Calm Calm - N/A   Overcast
11:01 PM 37.4 °F - 35.6 °F 93% 30.13 in 8.0 mi Calm Calm - N/A   Overcast
11:48 PM 37.4 °F - 35.6 °F 93% 30.12 in 10.0 mi SW 2.3 mph - N/A   Overcast
11:58 PM 38.3 °F 34.8 °F 36.5 °F 93% 30.14 in 10.0 mi SW 4.6 mph - N/A   Overcast